Saginaw, MI

2:10 AM EDT on June 26, 2017 (GMT -0400)
MBS International

Weather History for KMBS - September, 2014

Change the Weather History Date:

Monday, September 1, 2014

  Actual Average Record
Temperature  
Mean Temperature 74 °F 66 °F  
Max Temperature 84 °F 77 °F 88 °F (2000)
Min Temperature 64 °F 56 °F 46 °F (2001)
Degree Days  
Heating Degree Days 0    
Month to date heating degree days 0  
Since 1 July heating degree days 26  
Cooling Degree Days 9    
Month to date cooling degree days 9  
Year to date cooling degree days 494  
Growing Degree Days 24 (Base 50)    
Moisture  
Dew Point 68 °F    
Average Humidity 81    
Maximum Humidity 93    
Minimum Humidity 69    
Precipitation  
Precipitation 0.95 in 0.11 in 0.95 in (2014)
Month to date precipitation 0.95 0.11  
Year to date precipitation 23.06 20.63  
Snow  
Snow 0.00 in - - ()
Month to date snowfall 0.0  
Since 1 July snowfall 0.0  
Since 1 September snowfall 0.0  
Snow Depth 0.00 in    
Sea Level Pressure  
Sea Level Pressure 29.80 in    
Wind  
Wind Speed 9 mph (SSW)    
Max Wind Speed 36 mph    
Max Gust Speed 42 mph    
Visibility 8 miles    
Events Rain , Thunderstorm    
T = Trace of Precipitation, MM = Missing Value Source: NWS Daily Summary

Daily Weather History Graph

Daily Weather History Graph

Search for Another Location

Airport or City:

Trip Planner

Search our weather history database for the weather conditions in past years. The results will help you decide how hot, cold, wet, or windy it might be!

Date:

Astronomy

Sep. 01, 2014 Rise Set
Actual Time 7:00 AM EDT 8:11 PM EDT
Civil Twilight 6:30 AM EDT 8:41 PM EDT
Nautical Twilight 5:55 AM EDT 9:16 PM EDT
Astronomical Twilight 5:17 AM EDT 9:53 PM EDT
Moon 1:57 PM EDT (9/1) 11:59 PM EDT (9/1)
Length of Visible Light 14h 10m
Length of Day
13h 11m
Waxing Crescent, 42% of the Moon is Illuminated
Sep 1
Waxing Crescent
Sep 2
First Quarter
Sep 8
Full
Sep 15
Last Quarter
Sep 24
New

Hourly Weather History & Observations

Time (EDT) Temp. Heat Index Dew Point Humidity Pressure Visibility Wind Dir Wind Speed Gust Speed Precip Events Conditions
12:53 AM 69.1 °F - 64.9 °F 87% 29.89 in 10.0 mi SSW 3.5 mph - N/A   Clear
1:53 AM 68.0 °F - 66.0 °F 93% 29.91 in 10.0 mi SW 5.8 mph - N/A   Clear
2:51 AM 66.2 °F - 64.4 °F 94% 29.91 in 4.0 mi SSW 3.5 mph - N/A   Partly Cloudy
2:53 AM 66.9 °F - 64.9 °F 93% 29.90 in 5.0 mi SSW 3.5 mph - N/A   Partly Cloudy
3:53 AM 66.9 °F - 64.9 °F 93% 29.88 in 10.0 mi SSW 4.6 mph - N/A   Clear
4:53 AM 66.9 °F - 64.0 °F 90% 29.89 in 10.0 mi South 5.8 mph - N/A   Clear
5:53 AM 66.9 °F - 64.0 °F 90% 29.87 in 10.0 mi South 6.9 mph - N/A   Partly Cloudy
6:53 AM 66.9 °F - 64.0 °F 90% 29.88 in 10.0 mi SSW 5.8 mph - N/A   Partly Cloudy
7:53 AM 69.1 °F - 66.0 °F 90% 29.87 in 7.0 mi South 8.1 mph - N/A   Partly Cloudy
8:53 AM 72.0 °F - 69.1 °F 91% 29.85 in 5.0 mi South 8.1 mph - N/A   Mostly Cloudy
9:27 AM 73.4 °F - 69.8 °F 88% 29.85 in 10.0 mi South 8.1 mph - N/A   Mostly Cloudy
9:35 AM 73.9 °F - 70.0 °F 87% 29.85 in 10.0 mi South 6.9 mph - N/A   Mostly Cloudy
9:53 AM 73.9 °F - 70.0 °F 87% 29.83 in 7.0 mi South 11.5 mph - N/A   Mostly Cloudy
10:53 AM 75.2 °F - 69.8 °F 83% 29.83 in 10.0 mi South 10.4 mph - N/A   Overcast
11:06 AM 75.9 °F - 70.0 °F 82% 29.82 in 10.0 mi South 11.5 mph - N/A   Overcast
11:51 AM 78.8 °F - 71.6 °F 78% 29.81 in 10.0 mi South 13.8 mph - N/A   Overcast
11:53 AM 80.1 °F 83.6 °F 71.1 °F 74% 29.80 in 10.0 mi South 13.8 mph - N/A   Mostly Cloudy
12:34 PM 81.0 °F 84.4 °F 70.0 °F 69% 29.79 in 10.0 mi South 17.3 mph 24.2 mph N/A   Mostly Cloudy
12:53 PM 82.0 °F 86.3 °F 71.1 °F 69% 29.74 in 10.0 mi South 17.3 mph 24.2 mph N/A   Mostly Cloudy
1:53 PM 81.0 °F 84.9 °F 71.1 °F 72% 29.72 in 10.0 mi South 18.4 mph 28.8 mph N/A   Partly Cloudy
2:53 PM 82.0 °F 86.3 °F 71.1 °F 69% 29.71 in 10.0 mi South 16.1 mph 25.3 mph N/A   Mostly Cloudy
3:15 PM 82.9 °F 86.5 °F 69.1 °F 63% 29.72 in 10.0 mi SSW 20.7 mph 29.9 mph N/A Thunderstorm Scattered Clouds
3:30 PM 73.0 °F - 66.9 °F 81% 29.77 in 2.5 mi West 27.6 mph 41.4 mph 0.21 in Rain , Thunderstorm Heavy Thunderstorms and Rain
3:33 PM 70.0 °F - 66.0 °F 87% 29.77 in 1.8 mi WSW 19.6 mph 41.4 mph 0.28 in Rain , Thunderstorm Heavy Thunderstorms and Rain
3:40 PM 70.0 °F - 66.0 °F 87% 29.76 in 2.0 mi SW 15.0 mph - 0.48 in Rain , Thunderstorm Heavy Thunderstorms and Rain
3:48 PM 69.8 °F - 66.2 °F 88% 29.76 in 0.8 mi SW 13.8 mph - 0.70 in Rain , Thunderstorm Heavy Rain
3:53 PM 70.0 °F - 66.9 °F 90% 29.75 in 0.8 mi WSW 13.8 mph 19.6 mph 0.81 in Rain , Thunderstorm Heavy Thunderstorms and Rain
4:10 PM 71.1 °F - 66.9 °F 87% 29.75 in 7.0 mi SW 9.2 mph - 0.14 in Rain , Thunderstorm Rain
4:18 PM 72.0 °F - 68.0 °F 87% 29.75 in 10.0 mi SW 10.4 mph - 0.14 in Rain , Thunderstorm Light Rain
4:27 PM 72.0 °F - 69.1 °F 91% 29.74 in 10.0 mi SW 6.9 mph - 0.14 in   Overcast
4:53 PM 75.0 °F - 71.1 °F 87% 29.73 in 10.0 mi SW 10.4 mph - 0.14 in   Partly Cloudy
5:53 PM 77.0 °F - 71.1 °F 82% 29.71 in 10.0 mi SSW 10.4 mph - N/A   Clear
6:53 PM 78.1 °F - 72.0 °F 81% 29.72 in 10.0 mi SSW 8.1 mph - N/A   Partly Cloudy
7:53 PM 77.0 °F - 70.0 °F 79% 29.74 in 10.0 mi SW 8.1 mph - N/A   Partly Cloudy
8:53 PM 75.9 °F - 66.9 °F 74% 29.76 in 10.0 mi SW 10.4 mph - N/A   Overcast
9:53 PM 73.9 °F - 66.9 °F 79% 29.78 in 10.0 mi SSW 8.1 mph - N/A   Mostly Cloudy
10:53 PM 73.9 °F - 66.9 °F 79% 29.78 in 10.0 mi SW 6.9 mph - N/A   Mostly Cloudy
11:53 PM 72.0 °F - 66.9 °F 84% 29.79 in 10.0 mi SW 6.9 mph - N/A   Partly Cloudy